Погода в Семиярке

Погода в Семиярке : погода сейчас, прогноз погоды и архив. Всё, что Вы хотите узнать о погоде в Семиярке!

Хотите узнать прогноз погоды в Семиярке? Тогда Вам сюда: Погода в Семиярке

Поиск расширенной информации на нашем сайте:

Другие новости

Новости СМИ2

Главная страница сайта

Новости сайта

03.07.2017

Напоминаем, что на нашем специализированном сайте Метеоцентр.Азия вы можете получить высокодетализированные автоматические прогнозы погоды по пунктам России, СНГ и мира в авиационном формате (включающие направление и скорость ветра, видимость, явления погоды, количество и форму облачности, нижнюю и верхнюю границу облачности).


Погода в Семиярке - сегодня

Время (UTC), дата Ветер
(°,м/с) 
Видим.   Явления Облачность Т
(°С)
Тd
(°С)
f(%) Тe
(°С)
Pmin
(гПа)
dP
(гПа)
Po
(мм)
O2
(г/м3)
Тmin Tmax R s Состояние
почвы
21 12.02.18 тихо ()   н/о    ясно 
-23.7 -26.2 80 -24  1025.6  -1.1  754  334           
00 13.02.18 тихо ()   н/о    ясно 
-26.2 -28.9 78 -26  1025.2  -0.6  753  338           
03 13.02.18 тихо ()   4000 м  дымка  8/0 верхняя 
[Ci sp]
-24.5 -27 80 -25  1024.8  -0.2  753  335        28  неравномерный
сухой снег
100% 
06 13.02.18 тихо ()   20000 м    6/0 верхняя 
[Ci sp]
-18.7 -21.1 81 -19  1023.7  -0.6  753  327  -26.4         
09 13.02.18 050 (СВ) 20000 м    9/0 верхняя 
[Ci sp]
-12.6 -17.3 68 -15  1021.5  -1.7  752  319           
12 13.02.18 320 (СЗ) 20000 м    9/3 600 м средняя, верхняя 
[Sc|Ac trans|Ci sp]
-12.8 -16.8 72 -15  1020.9  -0.6  751  319           
15 13.02.18 320 (СЗ) н/о    6/6 600 м 
[Sc]
-13 -15.6 81 -15  1019.7  -1.2  750  319    -12.1       
18 13.02.18 320 (СЗ) н/о    ясно 
-10.5 -13.3 80 -12  1018.1  -1.4  749  315    -12.1       
21 13.02.18 320 (СЗ) н/о    4/0 верхняя 
[Ci sp]
-10.6 -13.2 81 -15  1017.3  -0.8  749  315           
00 14.02.18 140 (ЮВ) н/о    3/0 верхняя 
[Ci fib]
-10.2 -13.6 76 -14  1015.7  -1.5  747  314           
06 14.02.18 110 (В) 20000 м    9/9 600 м 
[Sc]
-6 -9.9 74 -11  1013.4  -1.1  746  308  -13         
09 14.02.18 140 (ЮВ) 0500 м  ливневой снег  10/10 600 м кучево-дожд. 
[Cb calv]
-3.2 -4.6 90 -6  1013.5  0.3  746  305           
21 14.02.18 тихо ()   н/о    ясно 
-23.3 -25.8 80 -23  1021.9  0.4  751  333           
00 15.02.18 тихо ()   н/о    ясно 
-25.9 -29.2 74 -26  1022.7  0.6  752  336           
03 15.02.18 тихо ()   4000 м  слаб. снег  10/0 средняя 
[Ac As]
-18.5 -21.7 76 -19  1023  0.9  752  327      0.2  31  неравномерный
сухой снег
100% 
09 15.02.18 270 (З) 20000 м  {снег}  3/0 верхняя 
[Ci sp]
-14.4 -19.7 64 -17  1024.2  0.6  753  322           
21 15.02.18 250 (З) н/о  позёмок  3/0 верхняя 
[Ci sp]
-17.2 -22.4 64 -24  1031.3  0.9  758  328           
03 16.02.18 250 (З) 4000 м  слаб. снег  10/10 600 м 
[Ns]
-15.8 -20.7 66 -23  1034.6  2.1  761  327      0.2  33  неравномерный
сухой снег
100% 
09 16.02.18 270 (З) 20000 м  позёмок{снег}  8/0 средняя 
[Ac trans]
-13.1 -19.2 60 -19  1038.3  1.6  764  325           
21 16.02.18 230 (ЮЗ) н/о  слаб. снег  10/0 средняя 
[Ac As]
-19.1 -22.6 74 -22  1041.6  0.1  766  334           
03 17.02.18 270 (З) 4000 м  слаб. снег  10/0 средняя 
[Ac As]
-18.1 -21.4 75 -21  1042.5  0.9  767  332      0.4  34  неравномерный
сухой снег
100% 
09 17.02.18 320 (СЗ) 20000 м    4/0 верхняя 
[Ci sp]
-16.6 -22.6 60 -19  1042  -0.5  766  330           
12 17.02.18 тихо ()   20000 м    3/0 верхняя 
[Ci sp]
-18.8 -23.9 64 -19  1042.3  0.1  766  333           
15 17.02.18 тихо ()   н/о    ясно 
-23.3 -27.9 66 -23  1042.9  0.2  767  340    -16       
18 17.02.18 тихо ()   н/о    ясно 
-25.9 -29.2 74 -26  1042.9  -0.2  766  343    -16       
Время (UTC), дата Ветер
(°,м/с) 
Видим.   Явления Облачность Т
(°С)
Тd
(°С)
f(%) Тe
(°С)
Pmin
(гПа)
dP
(гПа)
Po
(мм)
O2
(г/м3)
Тmin Tmax R s Состояние
почвы

Для получения пояснительной информации подведите курсор к названию столбца.

ПОГОДА в Семиярке - архив

Всё, что Вы хотите узнать о погоде в Семиярке - удобно и подробно!

Выберите нужную дату (начиная с 1 января 2015* года) и нажмите кнопку "Найти".
Будут отображены архивные сводки погоды по пункту Семиярка, начиная с указанной даты.


Отображать данные в формате CSV (для использования в таблицах Excel)


Внимание! Наш архив погоды предназначен исключительно для личного некоммерческого использования в познавательных целях. Если Вам необходимы официальные справки о состоянии погоды (для производственных, юридических, коммерческих и т.п. целей), обращайтесь в органы Росгидромета.

*Примечание: данная дата относится к архиву по метеостанциям СССР (Россия, СНГ, Балтия).
Архив по метеостанциям Зарубежной Европы и Азии (кроме Китая) хранится 10 дней, по другим регионам земного шара (Китай, Африка, Америка, Австралия, Океания) - 1 день.

Семиярка - район местоположения метеостанции


Название, широта, долгота, высота метеостанции:
Семиярка 50.9°ш. 78.3°д. 149 м над ур. моря [Казахстан]

Дополнительная информация

В oтличие oт бoльшинства пoгoдных сайтoв мы публикуем пoдрoбную метеoинфoрмацию в детальнoм прoфессиoнальнoм фoрмате.

Характеристики температуры и влажнoсти вoздуха измеряются на высoте 2 м в тени вдали oт зданий и деревьев.
Скoрoсть ветра измеряется на высoте 10 м (на урoвне рoста челoвека скoрoсть ветра ниже в 1.5-2 раза). Если метеoстанция нахoдится в гoрoде или в лесу, тo скoрoсть ветра занижена на 2-4 м/с пo сравнению с oткрытым местoм. Скoрoсть ветра над акватoриями крупных рек и oзёр, а также на вершинах хoлмoв на 2-5 м/с выше, чем в oбычных услoвиях.
Атмoсфернoе давление в разных тoчках местнoсти мoжет значительнo oтличаться oт давления на метеoстанции, в зависимoсти oт услoвий рельефа (при пoдъёме на 10 м давление пoнижается примернo на 1 мм рт.ст.).